Location: Peterborough
(44.3091°N, 78.3197°W)
Time: 23:45:26
(UTC-04:00)

SR - Pass Details

Date: 30 March 2023
Orbit: 581 x 867 km, 66.7° (Epoch: 02 June)

Event Time Altitude Azimuth Distance (km) Brightness Sun altitude
Rises 10:07:17 0° 334° (NNW) 2,813 ? 31.8°
Reaches altitude 10° 10:09:39 10° 344° (NNW) 1,922 ? 32.2°
Maximum altitude 10:13:35 34° 50° (NE) 1,005 ? 32.8°
Drops below altitude 10° 10:17:40 10° 116° (ESE) 2,003 ? 33.4°
Sets 10:20:11 0° 126° (SE) 2,950 ? 33.8°
